COSMOS 1691 DEB, 17168

Orbit data source: Space-Track

COSMOS 1691 DEB, 17168 is space debris in LEO originally from a launch on Wed, 09 Oct 1985 UTC launched from the Plesetsk Missile And Space Complex (PKMTR). Debris objects in space refer to the collection of defunct objects orbiting the Earth. Examples of debris include non-operational satellites, rocket bodies, and fragments generated from explosions, collisions, or faulty payload assembly.

Loading next visibility...
Identifier
17168, 1985-094S
Orbit
LEO
Country
Flag of CISCIS
Related business
Manufacturer
Unknown
Mission
Spacecraft
Bus & Motor
Unknown
Mass
Unknown
Launch date (UTC)
1985-10-09 (40 years ago)
Launch vehicle
Unknown
Launch site
Plesetsk Missile And Space Complex (PKMTR)
Object type
Payload
Rocket body
Debris
Shape & HBR
Unknown shape, 0.1 m
Radar Cross Section
Small (<0.1 m²)

Expand to show TLE details & history
Last TLE update: 13 hours ago

TLE from 13 hours ago
0 COSMOS 1691 DEB
1 17168U 85094S   25341.20875181  .00004403  00000-0  12025-1 0  9998
2 17168  82.5499 298.8784 0021917 244.5422 178.3435 13.13356503878218
Epoch: 2025-12-07T05:00Z
TLE epoch observation values (Epoch: 2025-12-07T05:00:36.156Z)
Latitude
62.05046°
Longitude
161.69703°
Altitude
1,237.437 km
Speed
7.234 km/s
True Right ascension
20h 52m 17s
True Declination
61° 55' 01"
Sunlit
Object was in daylight at epoch
Visualization orbit readout
Latitude
Unknown
Longitude
Unknown
Altitude
Unknown
Speed
Unknown
Apparent Right ascension
Unknown
Apparent Declination
Unknown
Sunlit
N/A
Visualization observer readout
Local Sidereal Time
16:20:30
Azimuth
Unknown
Elevation
Unknown
Doppler factor
Unknown
Orbital elements
Apogee altitude
1,224.078 km
Perigee altitude
1,190.827 km
Semi-major axis
7,585.589 km
Eccentricity
0.00219
Inclination
82.5499°
RAAN
298.8784°
Arg. of periapsis
244.5422°
True anomaly
178.35074°
Mean anomaly
178.3435°
Eccentric anomaly
178.34712°
Mean motion
3.28518 °/min
Orbital period
109.58 mins
BSTAR
0.012025
Loading maneuver chart data...
Computing Atmospheric mass density...
Loading historical data...
Loading historical data...
Loading historical data...
Loading historical data...
Loading historical data...
Loading historical data...
Loading historical data...

Documentation

Showing up to 5 results
|